User: anonymous   Login
Location: Oshawa
(43.9000°N, 78.8670°W)
Time: 13:16:56
(UTC-04:00)
Language:

Cosmos 1408 Rocket - Orbit

View from above orbital plane
View from above orbital plane
View from above satellite
View from above satellite

Ground track
Ground track

The orbit data is extracted from the following two-line orbital elements,

1 13553U 82092B   18170.80803439  .00000062  00000-0  45846-5 0  9990
2 13553  82.5697 251.5562 0019815 269.9626 227.8842 14.84169892931565
Epoch (UTC): 19 June 2018 19:23:34
Eccentricity: 0.0019815
inclination: 82.5697°
perigee height: 602 km
apogee height: 630 km
right ascension of ascending node: 251.5562°
argument of perigee: 269.9626°
revolutions per day: 14.84169892
mean anomaly at epoch: 227.8842°
orbit number at epoch: 93156

The dashed part of the orbit path shows where the satellite is in the earth's shadow,  

DLR